| time (UTC) | temp F | wind direction | speed MPH | gust MPH | rain 1hr in | rain 24hr in | rain mn in | humidity % | barometer mb |
| 20260508191551 | 82 | 136 | 3.0 | 8.0 | 0.00 | 0.00 | 0.00 | 52 | 1009.3 |
| 20260508184555 | 81 | 0.0 | 0.0 | 0.00 | 0.00 | 0.00 | 54 | 1009.5 | |
| 20260508183056 | 80 | 0.0 | 0.0 | 0.00 | 0.00 | 0.00 | 53 | 1009.7 | |
| 20260508181612 | 80 | 136 | 2.0 | 4.0 | 0.00 | 0.00 | 0.00 | 54 | 1009.9 |
| 20260508180110 | 79 | 148 | 2.0 | 0.0 | 0.00 | 0.00 | 0.00 | 55 | 1010.3 |
| 20260508174607 | 78 | 136 | 1.0 | 9.0 | 0.00 | 0.00 | 0.00 | 55 | 1010.7 |
| 20260508173055 | 77 | 252 | 2.0 | 8.0 | 0.00 | 0.00 | 0.00 | 56 | 1010.8 |
| 20260508171555 | 75 | 195 | 2.0 | 9.0 | 0.00 | 0.00 | 0.00 | 56 | 1011.1 |
| 20260508170059 | 76 | 241 | 3.0 | 10.0 | 0.00 | 0.00 | 0.00 | 55 | 1011.6 |
| 20260508164557 | 75 | 136 | 3.0 | 10.0 | 0.00 | 0.00 | 0.00 | 54 | 1011.8 |
| 20260508163051 | 75 | 105 | 4.0 | 13.0 | 0.00 | 0.00 | 0.00 | 53 | 1012.1 |
| 20260508161553 | 75 | 209 | 4.0 | 10.0 | 0.00 | 0.00 | 0.00 | 54 | 1012.3 |
| 20260508160052 | 74 | 188 | 2.0 | 8.0 | 0.00 | 0.00 | 0.00 | 56 | 1012.3 |
| 20260508154556 | 73 | 0.0 | 0.0 | 0.00 | 0.00 | 0.00 | 55 | 1012.5 | |
| 20260508153052 | 71 | 131 | 3.0 | 11.0 | 0.00 | 0.00 | 0.00 | 58 | 1012.8 |
| 20260508151553 | 70 | 207 | 3.0 | 10.0 | 0.00 | 0.00 | 0.00 | 63 | 1012.9 |
| 20260508150052 | 68 | 121 | 3.0 | 10.0 | 0.00 | 0.00 | 0.00 | 63 | 1013.0 |
| 20260508144552 | 67 | 234 | 2.0 | 13.0 | 0.00 | 0.00 | 0.00 | 64 | 1013.3 |
| 20260508143051 | 66 | 126 | 3.0 | 11.0 | 0.00 | 0.00 | 0.00 | 65 | 1013.2 |
| 20260508141600 | 65 | 180 | 3.0 | 9.0 | 0.00 | 0.00 | 0.00 | 66 | 1013.3 |
| 20260508140106 | 65 | 169 | 2.0 | 7.0 | 0.00 | 0.00 | 0.00 | 68 | 1013.4 |
| 20260508134552 | 63 | 158 | 4.0 | 9.0 | 0.00 | 0.00 | 0.00 | 70 | 1013.5 |
| 20260508133052 | 62 | 131 | 2.0 | 7.0 | 0.00 | 0.00 | 0.00 | 73 | 1013.6 |
| 20260508131603 | 60 | 142 | 1.0 | 6.0 | 0.00 | 0.00 | 0.00 | 76 | 1013.7 |
| 20260508130052 | 57 | 0 | 0.0 | 1.0 | 0.00 | 0.00 | 0.00 | 83 | 1013.7 |
| 20260508124556 | 56 | 0 | 0.0 | 3.0 | 0.00 | 0.00 | 0.00 | 86 | 1013.6 |
| 20260508123055 | 55 | 0 | 0.0 | 0.0 | 0.00 | 0.00 | 0.00 | 85 | 1013.4 |
| 20260508121559 | 55 | 0 | 0.0 | 1.0 | 0.00 | 0.00 | 0.00 | 84 | 1013.4 |
| 20260508120058 | 55 | 0 | 0.0 | 0.0 | 0.00 | 0.00 | 0.00 | 83 | 1013.3 |
| 20260508114550 | 55 | 0 | 0.0 | 1.0 | 0.00 | 0.00 | 0.00 | 83 | 1013.4 |
| 20260508113057 | 55 | 0 | 0.0 | 1.0 | 0.00 | 0.00 | 0.00 | 82 | 1013.4 |
| 20260508111557 | 56 | 0 | 0.0 | 1.0 | 0.00 | 0.00 | 0.00 | 81 | 1013.3 |
| 20260508110059 | 56 | 0 | 0.0 | 3.0 | 0.00 | 0.00 | 0.00 | 81 | 1013.2 |
| 20260508104552 | 56 | 0 | 0.0 | 1.0 | 0.00 | 0.00 | 0.00 | 81 | 1013.2 |
| 20260508103120 | 56 | 0 | 0.0 | 0.0 | 0.00 | 0.00 | 0.00 | 80 | 1013.0 |
| 20260508101604 | 57 | 0 | 0.0 | 3.0 | 0.00 | 0.00 | 0.00 | 79 | 1012.9 |
| 20260508100058 | 58 | 0 | 0.0 | 1.0 | 0.00 | 0.00 | 0.00 | 78 | 1012.9 |
| 20260508094612 | 58 | 0 | 0.0 | 4.0 | 0.00 | 0.00 | 0.00 | 78 | 1012.8 |
| 20260508093057 | 58 | 142 | 0.0 | 4.0 | 0.00 | 0.00 | 0.00 | 77 | 1012.9 |
| 20260508091555 | 58 | 126 | 0.0 | 3.0 | 0.00 | 0.00 | 0.00 | 77 | 1012.8 |
| 20260508090128 | 59 | 101 | 0.0 | 3.0 | 0.00 | 0.00 | 0.00 | 76 | 1012.8 |
| 20260508084554 | 59 | 0 | 0.0 | 2.0 | 0.00 | 0.00 | 0.00 | 75 | 1012.9 |
| 20260508083115 | 58 | 155 | 0.0 | 5.0 | 0.00 | 0.00 | 0.00 | 75 | 1012.9 |
| 20260508081555 | 57 | 142 | 0.0 | 3.0 | 0.00 | 0.00 | 0.00 | 76 | 1013.0 |
| 20260508080054 | 58 | 0 | 0.0 | 2.0 | 0.00 | 0.00 | 0.00 | 74 | 1013.1 |
| 20260508074554 | 58 | 0 | 0.0 | 2.0 | 0.00 | 0.00 | 0.00 | 74 | 1013.3 |
| 20260508073050 | 58 | 142 | 1.0 | 3.0 | 0.00 | 0.00 | 0.00 | 73 | 1013.3 |
| 20260508071550 | 58 | 142 | 0.0 | 1.0 | 0.00 | 0.00 | 0.00 | 71 | 1013.5 |
| 20260508070053 | 59 | 144 | 0.0 | 4.0 | 0.00 | 0.00 | 0.00 | 70 | 1013.7 |
| 20260508064556 | 59 | 142 | 1.0 | 3.0 | 0.00 | 0.00 | 0.00 | 70 | 1014.0 |
| 20260508063052 | 58 | 137 | 0.0 | 2.0 | 0.00 | 0.00 | 0.00 | 71 | 1014.1 |
| 20260508061556 | 56 | 0 | 0.0 | 1.0 | 0.00 | 0.00 | 0.00 | 73 | 1014.2 |
| 20260508060052 | 55 | 0 | 0.0 | 1.0 | 0.00 | 0.00 | 0.00 | 74 | 1014.0 |
| 20260508054602 | 54 | 0 | 0.0 | 0.0 | 0.00 | 0.00 | 0.00 | 74 | 1014.0 |
| 20260508053055 | 55 | 0 | 0.0 | 1.0 | 0.00 | 0.00 | 0.00 | 74 | 1014.1 |
| 20260508051555 | 53 | 0 | 0.0 | 2.0 | 0.00 | 0.00 | 0.00 | 76 | 1014.1 |
| 20260508050057 | 53 | 0 | 0.0 | 0.0 | 0.00 | 0.00 | 0.00 | 76 | 1014.1 |
| 20260508044550 | 54 | 0 | 0.0 | 1.0 | 0.00 | 0.00 | 0.00 | 76 | 1014.2 |
| 20260508043059 | 54 | 0 | 0.0 | 1.0 | 0.00 | 0.00 | 0.00 | 75 | 1014.3 |
| 20260508041600 | 54 | 0 | 0.0 | 0.0 | 0.00 | 0.00 | 0.00 | 74 | 1014.4 |
| 20260508040056 | 55 | 0 | 0.0 | 0.0 | 0.00 | 0.00 | 0.00 | 71 | 1014.5 |
| 20260508034604 | 55 | 0 | 0.0 | 0.0 | 0.00 | 0.00 | 0.00 | 71 | 1014.5 |
| 20260508033054 | 56 | 0 | 0.0 | 0.0 | 0.00 | 0.00 | 0.00 | 73 | 1014.4 |
| 20260508031557 | 55 | 0 | 0.0 | 0.0 | 0.00 | 0.00 | 0.00 | 70 | 1014.6 |
| 20260508030057 | 56 | 0 | 0.0 | 0.0 | 0.00 | 0.00 | 0.00 | 71 | 1014.4 |
| 20260508024556 | 57 | 0 | 0.0 | 0.0 | 0.00 | 0.00 | 0.00 | 68 | 1014.3 |
| 20260508023055 | 58 | 0 | 0.0 | 0.0 | 0.00 | 0.00 | 0.00 | 66 | 1014.0 |
| 20260508021555 | 59 | 0 | 0.0 | 0.0 | 0.00 | 0.00 | 0.00 | 64 | 1014.1 |
| 20260508020057 | 61 | 0 | 0.0 | 0.0 | 0.00 | 0.00 | 0.00 | 62 | 1014.0 |
| 20260508014555 | 62 | 0 | 0.0 | 0.0 | 0.00 | 0.00 | 0.00 | 57 | 1013.9 |
| 20260508013054 | 64 | 0 | 0.0 | 0.0 | 0.00 | 0.00 | 0.00 | 54 | 1013.9 |
| 20260508011549 | 67 | 0 | 0.0 | 0.0 | 0.00 | 0.00 | 0.00 | 50 | 1013.7 |
| 20260508010053 | 69 | 0 | 0.0 | 1.0 | 0.00 | 0.00 | 0.00 | 47 | 1013.6 |
| 20260508004553 | 70 | 141 | 0.0 | 2.0 | 0.00 | 0.00 | 0.00 | 43 | 1013.4 |
| 20260508003100 | 71 | 126 | 0.0 | 2.0 | 0.00 | 0.00 | 0.00 | 44 | 1013.3 |
| 20260508001558 | 72 | 0 | 0.0 | 3.0 | 0.00 | 0.00 | 0.00 | 39 | 1013.2 |
| 20260508000054 | 73 | 147 | 0.0 | 2.0 | 0.00 | 0.00 | 0.00 | 38 | 1013.3 |
| 20260507234551 | 73 | 107 | 1.0 | 4.0 | 0.00 | 0.00 | 0.00 | 37 | 1013.5 |
| 20260507233056 | 74 | 169 | 1.0 | 4.0 | 0.00 | 0.00 | 0.00 | 37 | 1013.6 |
| 20260507231555 | 74 | 136 | 1.0 | 3.0 | 0.00 | 0.00 | 0.00 | 37 | 1013.7 |
| 20260507230059 | 74 | 132 | 1.0 | 3.0 | 0.00 | 0.00 | 0.00 | 36 | 1013.8 |
| 20260507224613 | 74 | 131 | 0.0 | 2.0 | 0.00 | 0.00 | 0.00 | 34 | 1014.0 |
| 20260507223059 | 74 | 50 | 0.0 | 2.0 | 0.00 | 0.00 | 0.00 | 35 | 1014.0 |
| 20260507221554 | 75 | 0 | 0.0 | 3.0 | 0.00 | 0.00 | 0.00 | 36 | 1014.1 |
| 20260507220105 | 75 | 142 | 1.0 | 5.0 | 0.00 | 0.00 | 0.00 | 36 | 1014.3 |
| 20260507214604 | 75 | 109 | 1.0 | 5.0 | 0.00 | 0.00 | 0.00 | 35 | 1014.3 |
| 20260507213101 | 75 | 0 | 0.0 | 4.0 | 0.00 | 0.00 | 0.00 | 37 | 1014.5 |
| 20260507211618 | 75 | 0 | 1.0 | 3.0 | 0.00 | 0.00 | 0.00 | 35 | 1014.7 |
| 20260507210057 | 74 | 223 | 1.0 | 3.0 | 0.00 | 0.00 | 0.00 | 36 | 1014.9 |
| 20260507204605 | 74 | 136 | 0.0 | 5.0 | 0.00 | 0.00 | 0.00 | 35 | 1015.2 |
| 20260507203101 | 75 | 288 | 1.0 | 5.0 | 0.00 | 0.00 | 0.00 | 35 | 1015.5 |
| 20260507201612 | 75 | 105 | 1.0 | 3.0 | 0.00 | 0.00 | 0.00 | 35 | 1015.8 |
| 20260507194558 | 74 | 0.0 | 0.0 | 0.00 | 0.00 | 0.00 | 40 | 1016.3 | |
| 20260507193053 | 74 | 0.0 | 0.0 | 0.00 | 0.00 | 0.00 | 38 | 1016.5 |